Location: Caltech
(34.1382°N, 118.1253°W)
Time: 15:02:49
(UTC-07:00)

SO-67 - Visible Passes

Search period start: 20 September 2014 00:00
Search period end: 30 September 2014 00:00
Orbit: 460 x 465 km, 97.2° (Epoch: 20 September)

Date Brightness Start Highest point End Pass type
(mag) Time Alt. Az. Time Alt. Az. Time Alt. Az.
20 Sep ? 19:18:53 10° SSE 19:22:19 88° ENE 19:25:47 10° N visible
21 Sep ? 20:23:22 10° WSW 20:24:28 11° W 20:25:34 10° WNW visible
22 Sep ? 19:50:12 10° SSW 19:53:16 30° W 19:56:21 10° NW visible
23 Sep ? 19:18:44 10° SSE 19:22:10 88° ENE 19:25:38 10° N visible
24 Sep ? 20:23:09 10° WSW 20:24:15 11° W 20:25:21 10° WNW visible
25 Sep ? 19:49:55 10° SSW 19:52:59 30° W 19:56:04 10° NW visible
26 Sep ? 19:18:23 10° SSE 19:21:49 87° ENE 19:25:17 10° N visible
27 Sep ? 20:22:42 10° WSW 20:23:50 11° W 20:24:58 10° WNW visible
28 Sep ? 19:49:26 10° SSW 19:52:30 30° W 19:55:35 10° NW visible
29 Sep ? 19:17:51 10° SSE 19:21:17 86° E 19:24:44 10° N visible
